Terug naar catalogus

DELTA 1 DEB

ActiefSSO
NORAD 21380·DEBRIS·🇺🇸 United States

Gelanceerd Jun 12, 1975 vanaf Vandenberg Space Force Base

Loading…

Volgende Passages (komende 24 uur)

TLE

VersSource: Space-Track

Epoch: Sep 14, 2026, 09:22 UTC

1 21380U 75052DA  26257.39059076  .00000756  00000-0  10054-2 0  9994
2 21380  99.4228 214.9689 0059210 296.1768 217.0316 13.63169106750766

Volg DELTA 1 DEB in realtime met AllMySat

Download on the App Store